Location: Pine Mountain Observatory
(43.7910°N, 120.9377°W)
Time: 12:31:16
(UTC-07:00)

Vanguard 1 - Visible Passes

Search period start: 15 October 2019 00:00
Search period end: 25 October 2019 00:00
Orbit: 653 x 3830 km, 34.3° (Epoch: 14 October)

Date Brightness Start Highest point End Pass type
(mag) Time Alt. Az. Time Alt. Az. Time Alt. Az.
15 Oct 13.8 01:41:15 20° SE 01:41:15 20° SE 01:46:07 10° SE visible
15 Oct 13.4 03:54:01 30° SSW 03:54:01 30° SSW 04:06:51 10° SSE visible
15 Oct 12.5 18:33:10 10° SSE 18:38:12 16° SE 18:44:53 10° E visible
15 Oct 12.0 20:48:03 10° SW 20:57:34 46° SSE 21:00:29 42° SE visible
15 Oct 12.6 23:07:08 10° WSW 23:13:10 37° WSW 23:13:10 37° WSW visible
16 Oct 13.8 02:01:41 20° SE 02:01:41 20° SE 02:06:47 10° SE visible
16 Oct 13.5 04:14:27 25° SSW 04:14:27 25° SSW 04:25:50 10° S visible
16 Oct 12.3 18:52:09 10° S 18:58:22 22° SE 19:07:23 10° E visible
16 Oct 11.9 21:08:33 10° SW 21:18:22 52° SSE 21:20:04 50° SE visible
16 Oct 12.8 23:28:03 10° W 23:32:45 30° WSW 23:32:45 30° WSW visible
17 Oct 13.8 02:22:03 20° SSE 02:22:03 20° SSE 02:27:09 10° SE visible
17 Oct 13.7 04:34:49 19° SSW 04:34:49 19° SSW 04:43:56 10° S visible
17 Oct 12.1 19:11:48 10° SSW 19:18:42 29° SE 19:26:57 15° E visible
17 Oct 11.9 21:29:11 10° WSW 21:39:18 56° SSE 21:39:39 55° SSE visible
17 Oct 13.1 23:49:01 10° W 00:29:35 - ESE 23:52:19 23° WSW visible
18 Oct 13.8 02:42:21 19° SSE 02:42:21 19° SSE 02:47:08 10° SSE visible
18 Oct 13.8 04:55:06 13° SW 04:55:06 13° SW 05:00:17 10° SSW visible
18 Oct 11.9 19:31:50 10° SSW 19:39:10 36° SSE 19:46:30 21° E visible
18 Oct 11.9 21:49:54 10° WSW 21:59:12 56° S 21:59:12 56° S visible
19 Oct 13.3 00:10:03 10° W 00:49:49 - SE 00:11:53 17° W visible
19 Oct 13.9 03:02:34 17° S 03:02:34 17° S 03:06:39 10° SSE visible
19 Oct 11.7 19:52:08 10° SW 19:59:47 42° SSE 20:06:03 27° ESE visible
19 Oct 12.0 22:10:42 10° WSW 22:18:44 52° SW 22:18:44 52° SW visible
20 Oct 13.5 00:31:09 10° W 01:09:57 - SE 00:31:25 11° W visible
20 Oct 13.9 03:22:42 14° S 03:22:42 14° S 03:25:31 10° S visible
20 Oct 11.6 20:12:36 10° SW 20:20:32 47° SSE 20:25:34 34° ESE visible
20 Oct 12.2 22:31:34 10° W 22:38:15 44° SW 22:38:15 44° SW visible
21 Oct13.701:30:01SE01:30:01SE00:50:56Wvisible
21 Oct 14.0 03:42:44 11° S 03:42:44 11° S 03:43:21 10° S visible
21 Oct 11.6 20:33:12 10° WSW 20:41:23 51° SSE 20:45:06 41° SE visible
21 Oct 12.5 22:52:29 10° W 22:57:47 35° WSW 22:57:47 35° WSW visible
22 Oct13.901:49:58SSE01:49:58SSE01:10:28Wvisible
22 Oct 11.7 18:36:11 10° SSW 18:41:59 30° SSE 18:51:17 10° E visible
22 Oct 11.6 20:53:53 10° WSW 21:02:20 53° S 21:04:37 48° SE visible
22 Oct 12.8 23:13:28 10° W 23:17:19 26° WSW 23:17:19 26° WSW visible
23 Oct 11.5 18:56:26 10° SW 19:02:34 37° SSE 19:11:28 13° E visible
23 Oct 11.7 21:14:39 10° WSW 21:23:20 53° S 21:24:10 53° SSE visible
23 Oct 13.1 23:34:32 10° W 23:36:51 19° WSW 23:36:51 19° WSW visible
24 Oct 11.4 19:16:53 10° SW 19:23:17 42° SSE 19:31:01 18° ESE visible
24 Oct 11.8 21:35:29 10° WSW 21:43:43 51° SSW 21:43:43 51° SSW visible
